�N����,����,�~����,�C��,���x,�C��,����,���ϕ���,�ő�u�ԕ���,�ő厞����,���˗�,�I�_���x,�n�����x,�ő啗���N��,DTYPE
"21/07/27","00:10",0.0,25.4,80.5,996.7,329.5,1.2,1.9,340.0,0.00,21.8,26.7,"00:08:48",1
"21/07/27","00:20",0.0,25.3,81.1,996.7,333.6,0.8,1.8,345.1,0.00,21.9,26.5,"00:11:28",1
"21/07/27","00:30",0.0,25.1,81.8,996.5,324.7,0.7,1.7,333.2,0.00,21.8,26.6,"00:27:44",1
"21/07/27","00:40",0.0,25.0,82.5,996.7,350.4,0.7,1.6,341.6,0.00,21.9,26.5,"00:39:04",1
"21/07/27","00:50",0.0,25.0,83.0,996.3,333.1,1.1,2.9,335.0,0.00,22.0,26.6,"00:43:04",1
"21/07/27","01:00",0.0,25.2,83.0,996.3,335.6,1.2,2.1,347.2,0.00,22.1,26.6,"00:50:32",1
"21/07/27","01:10",0.0,25.1,83.1,996.3,336.2,1.0,1.8,343.2,0.00,22.1,26.6,"01:06:56",1
"21/07/27","01:20",0.0,25.0,83.1,996.0,329.9,1.0,2.4,336.5,0.00,22.0,26.3,"01:12:08",1
"21/07/27","01:30",0.0,25.0,83.4,996.0,345.5,0.8,1.7,338.5,0.00,22.0,26.4,"01:23:44",1
"21/07/27","01:40",0.0,24.7,83.6,995.8,329.1,0.7,1.4,333.9,0.00,21.8,26.4,"01:31:44",1
"21/07/27","01:50",0.0,24.6,84.1,996.0,340.3,0.8,1.7,348.2,0.00,21.8,26.3,"01:42:32",1
"21/07/27","02:00",0.0,24.6,84.5,996.3,340.4,1.0,2.4,346.8,0.00,21.9,26.2,"01:50:16",1
"21/07/27","02:10",0.0,24.4,84.8,995.6,323.1,0.6,1.7,341.6,0.00,21.7,26.2,"02:03:20",1
"21/07/27","02:20",0.0,24.4,85.2,996.0,334.6,0.8,1.8,344.2,0.00,21.8,26.5,"02:18:40",1
"21/07/27","02:30",0.0,24.5,85.4,995.8,332.7,0.8,1.8,337.4,0.00,21.9,26.1,"02:23:44",1
"21/07/27","02:40",0.0,24.4,85.4,995.6,340.6,0.8,1.7,5.3,0.00,21.8,26.2,"02:31:36",1
"21/07/27","02:50",0.0,24.2,85.6,996.0,350.9,0.7,1.9,14.7,0.00,21.7,26.2,"02:48:24",1
"21/07/27","03:00",0.0,24.2,85.7,995.8,341.0,1.0,1.9,342.5,0.00,21.7,26.0,"02:58:16",1
"21/07/27","03:10",0.0,24.2,85.8,995.3,322.8,1.1,1.7,334.4,0.00,21.7,26.1,"03:09:36",1
"21/07/27","03:20",0.0,24.2,85.8,995.3,334.8,1.1,2.6,342.2,0.00,21.7,26.1,"03:16:48",1
"21/07/27","03:30",0.0,24.4,85.5,995.3,333.7,1.1,3.6,349.5,0.00,21.9,26.0,"03:20:24",1
"21/07/27","03:40",0.0,24.4,85.2,995.8,326.9,1.1,1.9,343.1,0.00,21.8,26.1,"03:37:44",1
"21/07/27","03:50",0.0,24.2,84.9,995.8,343.6,0.6,1.4,348.9,0.00,21.5,25.8,"03:42:40",1
"21/07/27","04:00",0.0,23.9,84.9,995.6,312.3,0.5,1.4,303.2,0.00,21.2,26.0,"03:59:04",1
"21/07/27","04:10",0.0,23.5,85.1,995.6,292.0,0.6,1.0,332.7,0.00,20.9,25.9,"04:06:16",1
"21/07/27","04:20",0.0,23.5,85.7,995.6,350.2,0.6,1.3,339.1,0.00,21.0,25.8,"04:17:36",1
"21/07/27","04:30",0.0,23.6,86.3,995.8,327.6,0.8,1.8,325.9,0.00,21.2,25.9,"04:20:40",1
"21/07/27","04:40",0.0,23.8,86.8,995.6,319.2,1.0,2.4,117.9,0.00,21.5,25.7,"04:39:04",1
"21/07/27","04:50",0.0,24.0,86.7,995.6,346.1,0.8,2.4,343.7,0.00,21.7,25.7,"04:49:20",1
"21/07/27","05:00",0.0,24.2,86.3,995.6,323.7,1.3,3.1,321.1,0.00,21.8,25.6,"04:50:40",1
"21/07/27","05:10",0.0,24.5,85.6,995.6,327.8,2.0,3.4,347.6,0.00,22.0,25.5,"05:03:52",1
"21/07/27","05:20",0.0,24.5,84.9,995.8,326.2,1.3,2.7,329.9,0.00,21.8,25.8,"05:16:48",1
"21/07/27","05:30",0.0,24.5,84.1,995.3,330.6,1.5,2.7,320.9,0.00,21.7,25.5,"05:29:12",1
"21/07/27","05:40",0.0,24.7,83.4,995.6,319.0,1.3,3.1,350.1,0.00,21.7,25.6,"05:39:12",1
"21/07/27","05:50",0.0,24.7,82.9,995.8,332.4,1.5,3.3,345.3,0.00,21.6,25.4,"05:44:24",1
"21/07/27","06:00",0.0,24.9,82.7,995.6,333.6,1.8,3.5,341.0,0.00,21.8,25.6,"05:54:32",1
"21/07/27","06:10",0.0,25.0,82.7,995.3,330.7,1.6,3.1,337.6,0.00,21.9,25.4,"06:00:24",1
"21/07/27","06:20",0.0,25.1,82.7,995.3,325.2,1.6,2.6,339.0,0.01,22.0,25.5,"06:18:16",1
"21/07/27","06:30",0.0,25.4,82.7,995.3,338.3,1.2,2.7,331.0,0.03,22.3,25.6,"06:21:44",1
"21/07/27","06:40",0.0,25.8,82.4,995.1,336.6,0.8,1.6,344.6,0.04,22.6,25.6,"06:31:44",1
"21/07/27","06:50",0.0,26.4,82.0,995.1,351.5,0.7,2.9,343.0,0.06,23.1,25.5,"06:41:04",1
"21/07/27","07:00",0.0,26.5,80.8,994.8,340.0,0.6,1.8,312.9,0.03,23.0,25.5,"06:59:12",1
"21/07/27","07:10",0.0,26.4,79.6,995.1,313.4,1.7,4.8,246.4,0.04,22.6,25.4,"07:02:16",1
"21/07/27","07:20",0.0,26.6,78.3,995.3,299.1,1.5,3.4,286.5,0.07,22.6,25.6,"07:16:24",1
"21/07/27","07:30",0.0,26.7,77.6,994.6,292.8,1.5,5.8,340.2,0.06,22.5,25.6,"07:27:44",1
"21/07/27","07:40",0.0,26.8,77.2,994.8,316.5,1.6,3.3,310.9,0.06,22.5,25.4,"07:37:20",1
"21/07/27","07:50",0.0,26.8,77.2,995.1,300.4,1.3,2.8,334.2,0.06,22.5,25.6,"07:45:20",1
"21/07/27","08:00",0.0,27.1,76.9,995.1,286.0,1.5,3.2,338.0,0.10,22.7,25.3,"07:52:40",1
"21/07/27","08:10",0.0,27.3,76.4,994.6,271.4,1.6,6.2,223.1,0.12,22.8,25.4,"08:02:40",1
"21/07/27","08:20",0.0,27.4,75.9,994.6,255.3,1.7,4.3,223.7,0.09,22.8,25.6,"08:17:44",1
"21/07/27","08:30",0.0,27.7,76.1,994.8,268.3,1.3,3.2,232.2,0.14,23.1,25.4,"08:27:44",1
"21/07/27","08:40",0.0,28.2,74.7,994.1,298.7,1.2,3.5,239.8,0.20,23.3,25.6,"08:38:56",1
"21/07/27","08:50",0.0,28.4,73.5,993.9,323.1,1.3,3.6,237.8,0.21,23.2,25.5,"08:41:12",1
"21/07/27","09:00",0.0,28.6,73.9,994.1,300.9,1.3,3.6,334.7,0.20,23.5,25.6,"08:58:56",1
"21/07/27","09:10",0.0,29.5,72.4,993.9,290.4,1.3,3.9,349.5,0.35,24.1,25.5,"09:06:16",1
"21/07/27","09:20",0.0,29.9,69.8,993.9,278.6,1.5,4.1,231.6,0.36,23.8,25.8,"09:16:08",1
"21/07/27","09:30",0.0,30.3,68.8,994.6,320.8,1.6,4.0,357.5,0.37,24.0,26.0,"09:25:20",1
"21/07/27","09:40",0.0,30.7,66.7,994.4,299.2,1.6,3.9,311.5,0.40,23.8,25.7,"09:37:28",1
"21/07/27","09:50",0.0,29.4,68.8,994.4,296.2,1.7,3.7,303.5,0.10,23.1,25.8,"09:48:08",1
"21/07/27","10:00",0.0,29.2,70.0,993.9,334.2,2.1,4.2,345.1,0.16,23.2,25.8,"09:54:56",1
"21/07/27","10:10",0.0,30.0,69.4,994.1,323.8,1.6,3.5,355.1,0.21,23.8,25.9,"10:08:08",1
"21/07/27","10:20",0.0,30.7,64.8,993.9,354.7,1.7,5.4,353.9,0.18,23.4,26.2,"10:19:28",1
"21/07/27","10:30",0.0,30.9,64.0,994.6,0.9,1.6,3.9,32.3,0.21,23.3,26.1,"10:27:12",1
"21/07/27","10:40",0.0,32.5,58.7,994.6,36.0,1.6,5.6,332.9,0.53,23.4,26.1,"10:37:28",1
"21/07/27","10:50",0.0,32.6,54.2,995.6,13.4,1.8,4.1,348.7,0.37,22.2,26.2,"10:40:40",1
"21/07/27","11:00",0.0,32.5,56.1,995.3,353.8,2.0,4.1,1.1,0.46,22.7,26.2,"10:56:24",1
"21/07/27","11:10",0.0,32.2,58.5,995.1,336.5,1.8,5.5,333.8,0.40,23.1,26.5,"11:01:20",1
"21/07/27","11:20",0.0,31.5,58.5,995.3,327.0,2.5,4.8,349.9,0.36,22.4,26.6,"11:11:44",1
"21/07/27","11:30",0.0,31.7,57.8,995.6,338.8,1.8,3.5,352.2,0.32,22.4,26.5,"11:21:44",1
"21/07/27","11:40",0.0,31.0,59.4,995.6,333.4,2.2,4.7,349.4,0.18,22.2,26.7,"11:34:40",1
"21/07/27","11:50",0.0,30.9,61.5,994.8,335.9,3.0,4.5,337.1,0.35,22.7,26.5,"11:42:16",1
"21/07/27","12:00",0.0,31.2,59.6,995.1,324.4,3.1,6.4,338.9,0.46,22.4,26.8,"11:56:32",1
"21/07/27","12:10",0.0,31.1,59.7,994.8,323.8,2.7,7.2,346.9,0.39,22.4,26.8,"12:07:04",1
"21/07/27","12:20",0.0,31.3,60.0,994.8,332.2,2.0,4.2,314.9,0.26,22.6,26.8,"12:14:16",1
"21/07/27","12:30",0.0,31.4,60.6,994.8,348.0,1.7,3.2,20.7,0.24,22.9,27.0,"12:21:28",1
"21/07/27","12:40",0.0,31.8,58.7,994.8,346.1,1.8,4.4,345.0,0.42,22.8,27.2,"12:35:28",1
"21/07/27","12:50",0.0,32.5,57.9,994.8,317.3,2.0,4.3,334.1,0.55,23.2,26.8,"12:40:40",1
"21/07/27","13:00",0.0,32.6,56.6,994.8,338.0,2.1,4.4,356.4,0.47,22.9,26.9,"12:52:08",1
"21/07/27","13:10",0.0,32.1,58.3,994.6,351.9,2.5,5.7,325.0,0.33,22.9,27.0,"13:08:08",1
"21/07/27","13:20",0.0,32.5,56.6,995.3,352.5,2.0,4.0,50.8,0.39,22.8,27.3,"13:10:08",1
"21/07/27","13:30",0.0,32.4,57.0,995.3,335.7,2.5,6.0,354.3,0.52,22.8,27.2,"13:24:32",1
"21/07/27","13:40",0.0,32.8,55.0,995.1,343.9,2.7,7.2,338.9,0.59,22.6,27.2,"13:30:16",1
"21/07/27","13:50",0.0,32.1,55.8,995.1,349.6,2.7,6.6,350.1,0.31,22.2,27.5,"13:47:28",1
"21/07/27","14:00",0.0,32.0,55.8,995.1,10.0,2.0,3.9,39.4,0.22,22.1,27.4,"13:50:40",1
"21/07/27","14:10",0.0,32.4,56.1,994.8,11.2,2.0,4.1,14.0,0.36,22.6,27.5,"14:00:08",1
"21/07/27","14:20",0.0,33.0,55.0,994.8,347.2,2.0,5.6,346.0,0.57,22.8,27.6,"14:15:36",1
"21/07/27","14:30",0.0,33.4,53.8,995.3,342.6,1.8,4.2,29.3,0.48,22.8,27.6,"14:20:02",1
"21/07/27","14:40",0.0,33.4,52.6,995.6,356.6,1.7,4.5,51.3,0.33,22.4,27.7,"14:32:24",1
"21/07/27","14:50",0.0,33.0,53.0,995.3,2.3,2.0,4.0,338.7,0.35,22.2,27.7,"14:42:48",1
"21/07/27","15:00",0.0,32.7,53.9,995.3,12.8,1.5,3.4,83.7,0.21,22.2,27.7,"14:56:08",1
"21/07/27","15:10",0.0,31.2,57.7,994.6,355.8,2.3,6.0,332.2,0.13,21.9,27.7,"15:05:44",1
"21/07/27","15:20",0.0,30.7,59.1,994.1,0.6,2.0,6.7,348.7,0.11,21.8,28.0,"15:11:36",1
"21/07/27","15:30",0.0,30.5,60.8,994.4,350.8,1.6,3.9,358.9,0.11,22.1,27.9,"15:20:08",1
"21/07/27","15:40",0.0,31.0,61.3,994.4,349.9,0.7,2.1,351.7,0.12,22.7,27.9,"15:38:00",1
"21/07/27","15:50",0.0,31.0,60.4,994.4,336.3,1.3,3.4,345.5,0.19,22.5,27.9,"15:49:20",1
"21/07/27","16:00",0.0,31.0,60.0,994.4,315.5,1.5,4.9,348.6,0.21,22.4,27.8,"15:56:16",1
"21/07/27","16:10",0.0,30.9,60.3,994.1,344.2,1.7,4.2,346.1,0.18,22.4,27.7,"16:07:20",1
"21/07/27","16:20",0.0,30.9,60.0,994.1,358.5,1.7,3.9,9.8,0.15,22.3,27.8,"16:14:24",1
"21/07/27","16:30",0.0,31.0,61.3,993.9,340.4,1.1,2.4,347.8,0.13,22.7,27.9,"16:20:08",1
"21/07/27","16:40",0.0,31.0,60.8,994.1,331.4,1.5,3.7,326.2,0.16,22.6,27.7,"16:39:36",1
"21/07/27","16:50",0.0,31.0,60.4,993.7,351.2,1.1,2.1,321.6,0.12,22.5,28.1,"16:46:24",1
"21/07/27","17:00",0.0,30.6,61.0,993.7,359.8,1.8,4.2,352.4,0.10,22.3,27.9,"16:57:12",1
"21/07/27","17:10",0.0,30.9,61.4,993.4,341.1,1.5,3.1,330.9,0.15,22.7,27.9,"17:03:20",1
"21/07/27","17:20",0.0,30.9,60.0,993.7,343.9,1.2,2.9,356.9,0.12,22.3,27.8,"17:16:24",1
"21/07/27","17:30",0.0,30.5,60.8,993.7,342.0,1.1,3.1,344.2,0.06,22.1,28.1,"17:29:12",1
"21/07/27","17:40",0.0,29.9,61.8,993.4,334.7,2.0,4.0,336.5,0.06,21.8,27.8,"17:38:40",1
"21/07/27","17:50",0.0,29.7,63.3,993.4,333.4,1.6,3.9,342.9,0.05,22.0,28.0,"17:40:02",1
"21/07/27","18:00",0.0,29.4,63.6,993.2,344.1,1.2,4.0,42.8,0.04,21.8,27.8,"17:58:56",1
"21/07/27","18:10",0.0,29.5,63.7,993.0,347.8,1.1,2.4,336.2,0.02,21.9,27.7,"18:01:04",1
"21/07/27","18:20",0.0,29.3,64.6,993.0,343.9,1.2,3.2,347.4,0.02,22.0,27.8,"18:18:00",1
"21/07/27","18:30",0.0,29.1,65.2,993.2,334.6,1.3,2.6,319.0,0.01,21.9,27.9,"18:22:48",1
"21/07/27","18:40",0.0,29.0,65.7,992.5,343.4,1.5,3.1,346.4,0.01,22.0,27.5,"18:38:16",1
"21/07/27","18:50",0.0,28.9,66.4,992.5,340.4,1.2,2.1,343.7,0.00,22.0,27.7,"18:48:32",1
"21/07/27","19:00",0.0,28.7,67.0,993.0,347.9,1.1,2.1,14.3,0.00,22.0,27.7,"18:55:20",1
"21/07/27","19:10",0.0,28.4,67.1,993.4,339.9,1.6,3.2,352.8,0.00,21.7,27.7,"19:01:44",1
"21/07/27","19:20",0.0,28.4,67.3,993.2,355.2,1.6,3.7,344.4,0.00,21.8,27.6,"19:14:32",1
"21/07/27","19:30",0.0,28.2,67.9,993.2,345.0,0.8,1.7,344.3,0.00,21.7,27.6,"19:21:36",1
"21/07/27","19:40",0.0,28.0,69.2,993.2,346.7,0.8,1.7,335.5,0.00,21.9,27.6,"19:32:56",1
"21/07/27","19:50",0.0,27.6,70.8,993.7,345.8,0.8,1.3,334.9,0.00,21.9,27.5,"19:46:48",1
"21/07/27","20:00",0.0,27.3,72.1,993.4,339.5,0.8,1.6,344.7,0.00,21.9,27.6,"19:52:08",1
"21/07/27","20:10",0.0,27.1,73.4,993.9,340.3,0.7,1.6,342.4,0.00,22.0,27.4,"20:07:04",1
"21/07/27","20:20",0.0,27.1,74.9,993.9,350.6,1.0,1.6,2.7,0.00,22.3,27.4,"20:15:28",1
"21/07/27","20:30",0.0,26.7,76.2,994.1,343.0,1.0,1.9,339.4,0.00,22.2,27.5,"20:27:12",1
"21/07/27","20:40",0.0,26.4,77.0,993.9,330.7,0.7,1.3,338.0,0.00,22.1,27.4,"20:30:16",1
"21/07/27","20:50",0.0,26.3,77.8,994.1,345.9,1.0,2.4,346.1,0.00,22.2,27.2,"20:40:56",1
"21/07/27","21:00",0.0,26.1,78.3,994.4,348.2,0.7,1.3,341.3,0.00,22.1,27.2,"20:50:40",1
"21/07/27","21:10",0.0,26.0,78.7,994.6,327.8,0.8,1.7,325.1,0.00,22.1,27.1,"21:02:24",1
"21/07/27","21:20",0.0,25.9,78.9,994.6,302.5,0.7,1.2,302.2,0.00,22.0,27.2,"21:18:48",1
"21/07/27","21:30",0.0,26.0,79.1,994.4,320.0,1.0,2.2,344.5,0.00,22.1,27.2,"21:27:44",1
"21/07/27","21:40",0.0,25.7,79.3,994.6,322.8,0.8,1.4,353.0,0.00,21.9,27.1,"21:30:40",1
"21/07/27","21:50",0.0,25.6,79.7,994.8,329.0,0.8,1.7,345.0,0.00,21.9,27.1,"21:44:32",1
"21/07/27","22:00",0.0,25.6,80.0,994.8,328.4,0.6,1.4,357.1,0.00,21.9,26.9,"21:58:16",1
"21/07/27","22:10",0.0,25.7,80.1,995.1,331.7,1.1,1.9,347.8,0.00,22.1,26.8,"22:05:36",1
"21/07/27","22:20",0.0,25.8,79.9,994.8,329.5,1.5,2.5,333.2,0.00,22.1,27.0,"22:10:32",1
"21/07/27","22:30",0.0,25.9,79.5,994.8,329.0,1.5,2.6,345.1,0.00,22.1,27.0,"22:21:28",1
"21/07/27","22:40",0.0,25.9,79.5,994.8,327.0,1.2,2.8,345.7,0.00,22.1,26.9,"22:34:16",1
"21/07/27","22:50",0.0,25.9,79.7,995.1,334.3,1.3,2.6,341.3,0.00,22.2,26.8,"22:47:04",1
"21/07/27","23:00",0.0,25.7,80.0,995.1,335.3,1.1,2.9,343.5,0.00,22.0,26.6,"22:50:02",1
"21/07/27","23:10",0.0,25.7,80.4,995.3,338.6,1.3,2.4,340.2,0.00,22.1,26.8,"23:03:28",1
"21/07/27","23:20",0.0,25.6,80.8,995.3,337.3,1.5,3.6,344.6,0.00,22.1,26.7,"23:12:24",1
"21/07/27","23:30",0.0,25.6,81.3,995.6,344.6,1.2,2.6,327.7,0.00,22.2,26.7,"23:23:52",1
"21/07/27","23:40",0.0,25.5,81.5,995.3,346.2,1.3,3.2,342.2,0.00,22.1,26.6,"23:39:20",1
"21/07/27","23:50",0.0,25.7,81.6,995.3,335.9,1.6,3.7,331.7,0.00,22.4,26.5,"23:46:40",1
"21/07/27","24:00",0.0,25.6,81.6,995.3,323.5,1.0,2.1,328.2,0.00,22.3,26.6,"23:50:08",1
